Location: Mount Tamalpais State Park
(37.9108°N, 122.6128°W)
Time: 08:40:20
(UTC-07:00)

Cosmos 1814 Rocket - Visible Passes

Search period start: 06 July 2015 00:00
Search period end: 16 July 2015 00:00
Orbit: 745 x 788 km, 74.1° (Epoch: 05 July)

Date Brightness Start Highest point End Pass type
(mag) Time Alt. Az. Time Alt. Az. Time Alt. Az.
06 Jul 3.9 04:16:14 23° SSW 04:19:33 89° ESE 04:24:49 10° NNE visible
07 Jul 4.6 03:39:44 28° SSE 03:42:09 50° ESE 03:47:13 10° NNE visible
07 Jul 5.7 05:20:52 10° WSW 05:24:35 19° WNW 05:28:10 10° NNW visible
08 Jul 5.5 03:03:13 23° SE 03:04:50 28° E 03:09:16 10° NE visible
08 Jul 5.0 04:43:28 16° WSW 04:46:48 31° WNW 04:51:26 10° N visible
09 Jul 6.1 02:26:39 15° ESE 02:27:35 15° E 02:30:41 10° ENE visible
09 Jul 4.2 04:06:54 31° SW 04:09:10 55° WNW 04:14:19 10° N visible
10 Jul 3.9 03:30:19 50° S 03:31:41 84° ESE 03:36:57 10° NNE visible
10 Jul 6.1 05:12:31 10° WNW 05:14:34 12° NW 05:16:21 10° NNW visible
11 Jul 4.5 02:53:41 44° SE 02:54:17 46° ESE 02:59:19 10° NNE visible
11 Jul 5.7 04:33:56 14° W 04:36:39 20° WNW 04:40:25 10° NNW visible
12 Jul 5.5 02:17:02 26° E 02:17:02 26° E 02:21:19 10° NE visible
12 Jul 5.0 03:57:16 28° W 03:58:54 34° WNW 04:03:37 10° N visible
13 Jul 6.2 01:40:21 14° E 01:40:21 14° E 01:42:36 10° ENE visible
13 Jul 4.1 03:20:35 54° WSW 03:21:17 59° WNW 03:26:29 10° N visible
14 Jul 3.9 02:43:53 79° E 02:43:53 79° E 02:49:05 10° NNE visible
14 Jul 6.1 04:24:12 10° W 04:26:38 13° NW 04:28:48 10° NNW visible
15 Jul 4.9 02:07:08 41° E 02:07:08 41° E 02:11:24 10° NNE visible
15 Jul 5.6 03:47:22 20° W 03:48:44 21° WNW 03:52:40 10° N visible
